Home > Weather > Råholt > Past weeks

Flag for Norway Past Weather in Råholt, Norway — Yesterday and Last 2 Weeks

Now
55 °F

Partly sunny.


Feels Like: 54 °F
Forecast: 50 / 57 °F
Wind: 6 mph from Northeast

Location: Oslo Gardermoen Airport

Current Time: Aug 28, 2016 at 12:42:06 PM

Latest Report: Aug 28, 2016 at 11:50 AM


Visibility: N/A

Pressure: 30.07 "Hg

Humidity: 63%

Dew Point: 43 °F

Location of RåholtLocation

Past Weather in Råholt — Graph

°F

Råholt Temperature Yesterday

Maximum temperature yesterday: 68 °F (at 1:50 PM)
Minimum temperature yesterday: 50 °F (at 5:50 AM)
Average temperature yesterday: 59 °F

High & Low Weather Summary for the Past Weeks

 TemperatureHumidityPressure
High73 °F (Aug 17, 5:50 PM)100% (Aug 21, 7:20 AM)30.24 "Hg (Aug 21, 7:20 AM)
Low45 °F (Aug 28, 3:50 AM)33% (Aug 17, 6:20 PM)29.65 "Hg (Aug 13, 11:20 AM)
Average60 °F71%30.00 "Hg
* Reported Aug 13 11:20 AM — Aug 28 11:20 AM, Råholt, Weather by CustomWeather, © 2016

Note: Actual official high and low records may vary slightly from our data, if they occured in-between our weather recording intervals... More about our weather records

Advertising

Råholt Weather History for the Previous 24 Hours

Scroll right to see more
 ConditionsComfort  
Time TempWeatherWind HumidityBarometerVisibility
11:20 AM
Sun, Aug 28
54 °FPartly sunny.6 mph72%30.07 "HgN/A
10:50 AM54 °FPartly sunny.6 mph72%30.07 "HgN/A
10:20 AM54 °FPartly sunny.6 mph72%30.07 "HgN/A
9:50 AM54 °FBroken clouds.6 mph77%30.07 "HgN/A
9:20 AM52 °FSunny.5 mph82%30.07 "Hg10 mi
8:50 AM52 °FSunny.3 mph82%30.07 "Hg10 mi
8:20 AM50 °FSunny.5 mph88%30.09 "Hg10 mi
7:50 AM48 °FSunny.3 mph94%30.09 "Hg10 mi
7:20 AM46 °FSunny.2 mph93%30.09 "Hg10 mi
6:50 AM46 °FClear.1 mph87%30.09 "Hg10 mi
6:20 AM46 °FClear.No wind87%30.09 "Hg10 mi
5:50 AM46 °FClear.No wind87%30.09 "Hg10 mi
5:20 AM45 °FClear.1 mph93%30.07 "Hg10 mi
4:50 AM45 °FClear.2 mph93%30.07 "Hg10 mi
4:20 AM45 °FClear.3 mph87%30.07 "Hg10 mi
3:50 AM45 °FClear.2 mph87%30.07 "Hg10 mi
3:20 AM46 °FPassing clouds.5 mph82%30.07 "HgN/A
2:50 AM46 °FClear.3 mph82%30.07 "Hg10 mi
2:20 AM46 °FClear.6 mph82%30.07 "Hg10 mi
1:50 AM48 °FClear.2 mph76%30.07 "Hg10 mi
1:20 AM48 °FPassing clouds.3 mph76%30.07 "HgN/A
12:50 AM50 °FClear.5 mph76%30.07 "Hg10 mi
12:20 AM50 °FClear.6 mph76%30.07 "Hg10 mi
11:50 PM
Sat, Aug 27
50 °FPassing clouds.8 mph76%30.07 "HgN/A
11:20 PM52 °FPassing clouds.6 mph72%30.07 "HgN/A
10:50 PM54 °FPassing clouds.3 mph67%30.07 "HgN/A
10:20 PM54 °FClear.5 mph67%30.04 "Hg10 mi
9:50 PM57 °FClear.2 mph59%30.04 "Hg10 mi
9:20 PM57 °FSunny.2 mph59%30.04 "Hg10 mi
8:50 PM61 °FPassing clouds.3 mph52%30.04 "HgN/A
8:20 PM63 °FSunny.1 mph45%30.04 "Hg10 mi
7:50 PM64 °FSunny.2 mph40%30.04 "Hg10 mi
7:20 PM64 °FPassing clouds.3 mph43%30.04 "HgN/A
6:50 PM66 °FPassing clouds.8 mph37%30.01 "HgN/A
6:20 PM68 °FPassing clouds.8 mph35%30.01 "HgN/A
5:50 PM68 °FPassing clouds.6 mph38%30.01 "HgN/A
5:20 PM68 °FPassing clouds.6 mph35%30.01 "HgN/A
4:50 PM68 °FPassing clouds.6 mph35%30.01 "HgN/A
4:20 PM68 °FPassing clouds.8 mph35%30.01 "HgN/A
3:50 PM68 °FPassing clouds.9 mph38%30.01 "HgN/A
3:20 PM68 °FPassing clouds.8 mph38%30.01 "HgN/A
2:50 PM68 °FPassing clouds.8 mph35%30.01 "HgN/A
2:20 PM68 °FPassing clouds.9 mph35%30.01 "HgN/A
1:50 PM68 °FPassing clouds.8 mph35%30.01 "HgN/A
1:20 PM66 °FPassing clouds.7 mph37%29.98 "HgN/A
12:50 PM66 °FPassing clouds.9 mph37%29.98 "HgN/A
12:20 PM66 °FPassing clouds.9 mph40%29.95 "HgN/A
Weather by CustomWeather, © 2016

See weather overviewHow to use our weather pages